MMS 2

Last updated on Sept. 19, 2020, 5:46 a.m. UTC

1 40483U 15011B   20262.28984434 -.00000994  00000-0  00000+0 0  9993
2 40483  30.1885 119.6440 8541919  23.9651 294.2571  0.28639761 11457
UTC
Height (km)
Latitude
Longitude
Inclination
Orbital Period
UTC large
Height (km)
Speed (km/s)
/
Latitude / Longitude
Inclination (degrees)
Orbital Period (minutes)
Azimuth
Elevation
Range (km)
Doppler Factor
iOS Compass Heading
iOS Angle

Next 30 passes for location: Hong Kong

Rise time Rise Azimuth (degrees) Set time Set Azimuth (degrees) Duration Max altitude (degrees)

No matching passes for this satellites